{"data":{"norad_id":66892,"intl_designator":"2025-283Q","name":"STARLINK-35883","alt_names":[],"object_type":"PAYLOAD","status":"ACTIVE","operator":null,"country":"US","launch_date":"2025-12-04","launch_site_code":"AFWTR","launch_vehicle":null,"mission":null,"orbit_class":"UNKNOWN","rcs_meters":null,"size_class":null,"mass_kg":null,"dimensions":null,"purposes":["comms"],"wikipedia_slug":null,"has_3d_model":false,"image_url":null,"decayed_at":null,"tle_current":{"epoch":"2026-05-24T23:11:55.701888Z","epoch_age_seconds":92126,"freshness":"FRESH","line1":"1 66892U 25283Q   26144.96661692  .00020482  00000+0  70191-3 0  9999","line2":"2 66892  53.1597  29.7889 0001192  81.3476 278.7660 15.30192614 27522","mean_motion":15.30192614,"eccentricity":0.0001192,"inclination_deg":53.1597,"raan_deg":29.7889,"arg_perigee_deg":81.3476,"mean_anomaly_deg":278.766,"bstar":0.00070191,"rev_number":2752,"period_min":94.105799938203,"perigee_km":474.42020057726,"apogee_km":476.05404496813,"semimajor_km":6853.3741227727,"source":"CELESTRAK","updated_at":"2026-05-25T13:38:21.380900Z"}}}